[[{"header":{"parameterUnit":"m.s-1","parameterCategory":1,"la1":30.2991,"la2":30.254,"lo1":-89.0895,"lo2":-89.0444,"dy":0.0017,"dx":0.0017,"nx":28,"ny":28,"refTime":"2025-11-07T09:00:00:Z","depth":0,"parameterNumber":2,"parameterNumberName":"U-component_of_WINDS"},"data":[0,0,0,0,0,0,0,0,0,0,0,0,0,0,0,0,0,0,0,0,0,0,0,0,0,0,0,0,0,0,0,0,0,0,0,0,0,0,0,0,0,0,0,0,0,0,0,0,0,0,0,0,0,0,0,0,0,0,2.686,2.686,0,2.6943,2.6944,2.6944,2.6922,2.692,2.6919,2.6917,2.7003,2.7007,2.701,0,0,0,0,0,0,0,0,0,0,0,0,0,2.6682,2.6685,2.6859,2.686,2.6862,2.6942,2.6944,2.6945,2.6922,2.692,2.6918,2.6916,2.7002,2.7006,2.7011,0,0,0,0,0,0,0,0,0,0,0,0,0,2.6761,2.6686,2.6859,2.686,2.6861,2.6942,2.6944,2.6945,2.6923,2.692,2.6918,2.6915,2.7,2.7006,2.7011,2.7097,0,0,2.7029,2.7032,0,0,0,0,0,0,0,0,2.6757,2.6768,2.6859,2.686,2.6861,2.6919,2.6912,2.6996,2.6923,2.6899,2.6917,2.6914,2.6977,2.6985,2.7006,2.7101,2.7105,2.703,2.7033,2.7036,2.7037,0,0,0,0,0,0,0,2.6751,2.6764,2.6892,2.686,2.6862,2.6856,2.6865,2.6928,2.6951,2.6901,2.69,2.691,2.6977,2.7,2.7008,2.7106,2.7029,2.7035,2.7038,2.704,2.7276,2.7279,0,0,0,0,0,0,2.6745,2.676,2.689,2.6895,2.6802,2.6862,2.6871,2.6903,2.6951,2.6955,2.6912,2.6909,2.6992,2.7001,2.7011,2.7114,2.7035,2.7041,2.7044,2.7273,2.7277,2.728,0,0,0,0,0,0,2.6741,2.6757,2.6886,2.6827,2.6843,2.6867,2.6904,2.6906,2.6929,2.6959,2.6963,2.6931,2.699,2.7002,2.7076,2.7117,2.7044,2.7049,2.727,2.7274,2.7278,2.7322,0,0,0,0,0,0,2.6736,2.6755,2.6788,2.6828,2.6846,2.695,2.6906,2.691,2.6939,2.6935,2.6978,2.6982,2.6989,2.7067,2.7082,2.7124,2.7053,2.7266,2.7272,2.7277,2.7317,2.7327,2.7336,0,0,0,0,0,2.673,2.6798,2.679,2.6806,2.6888,2.6953,2.6963,2.6969,2.6942,2.6976,2.6995,2.6981,2.711,2.7075,2.7091,2.7135,2.7264,2.727,2.7276,2.7313,2.7325,2.7336,0,0,0,0,0,0,2.6763,2.6803,2.6795,2.6877,2.6912,2.6949,2.6991,2.6982,2.7025,2.702,2.7026,2.7036,2.7111,2.713,2.7091,2.7221,2.7183,2.7193,2.7205,2.7217,2.7227,2.7221,2.7058,0,0,0,0,0,2.6779,2.6828,2.6861,2.6931,2.6948,2.6967,2.6995,2.6997,2.7033,2.7047,2.7071,2.7107,2.7155,2.7187,2.7234,2.732,2.7329,2.7358,2.7367,2.7375,2.7384,2.743,2.7444,2.73,2.73,2.73,0,0,2.6815,2.6843,2.6873,2.6938,2.6965,2.7016,2.6979,2.7034,2.7072,2.7056,2.7126,2.7145,2.7185,2.7266,2.7302,2.7284,2.7425,2.7383,2.7389,2.7393,2.7438,2.7452,2.7464,2.7305,2.7304,2.7303,0,0,2.6905,2.6931,2.6992,2.7019,2.706,2.7072,2.7087,2.7125,2.7137,2.7208,2.7196,2.7241,2.7325,2.7354,2.7379,2.748,2.7469,2.7495,2.7545,2.759,2.7602,2.7612,2.7648,2.7661,2.7503,2.7504,2.7504,0,2.6944,2.702,2.7024,2.7081,2.711,2.7096,2.7158,2.7185,2.7239,2.7259,2.7238,2.7342,2.7368,2.7455,2.7479,2.75,2.7517,2.7491,2.76,2.761,2.7619,2.7654,2.7668,2.7506,2.7506,2.7506,2.7505,0,2.7066,2.7119,2.7163,2.7215,2.7249,2.7308,2.7321,2.7355,2.7353,2.7367,2.7439,2.747,2.7522,2.7543,2.7542,2.763,2.7617,2.7598,2.756,2.7636,2.7668,2.7682,2.7511,2.7509,2.7509,2.7508,0,0,2.718,2.7233,2.725,2.7273,2.7317,2.7358,2.7416,2.7467,2.7495,2.7533,2.7582,2.7653,2.7635,2.7664,2.7667,2.7707,2.7785,2.7682,2.7683,2.7701,2.7883,2.7898,2.7913,2.7777,2.778,2.7782,2.788,0,2.7275,2.7377,2.7382,2.7475,2.7524,2.7512,2.7562,2.7595,2.7609,2.7653,2.7669,2.7719,2.7692,2.7709,2.7748,2.7767,2.7822,2.776,2.7824,2.7826,2.7814,2.793,2.7946,2.8037,2.7893,2.7895,2.7896,0,2.7399,2.744,2.7538,2.7574,2.7595,2.764,2.7687,2.7729,2.7765,2.7773,2.7805,2.7802,2.7861,2.7821,2.7904,2.7862,2.7888,2.7901,2.7905,2.7911,2.7866,2.794,2.8066,2.8079,2.7916,2.7915,2.7913,0,2.7473,2.7552,2.7621,2.7641,2.7686,2.7718,2.7738,2.7772,2.7802,2.7843,2.7862,2.791,2.7936,2.7972,2.7982,2.7952,2.8064,2.8025,2.8073,2.8073,2.8098,2.8096,2.8229,2.8114,2.8113,2.8113,2.8113,0,2.7578,2.7639,2.7655,2.7697,2.7764,2.777,2.7836,2.7854,2.7884,2.793,2.7922,2.7965,2.7975,2.802,2.8027,2.8095,2.8106,2.8114,2.8116,2.8116,2.8115,2.8133,2.8127,2.8117,2.8116,2.8115,2.8115,0,2.7673,2.7686,2.776,2.7796,2.7806,2.7854,2.7884,2.7925,2.7938,2.7996,2.801,2.8031,2.8083,2.8096,2.8159,2.8164,2.8243,2.8239,2.8231,2.8231,2.8278,2.8274,2.8429,2.845,2.832,2.8321,2.8322,0,2.774,2.7786,2.7826,2.7856,2.7877,2.7925,2.7956,2.7962,2.7995,2.8039,2.8075,2.8126,2.8168,2.8252,2.8273,2.8321,2.8317,2.8368,2.8325,2.8323,2.8319,2.8316,2.8321,2.8377,2.8378,2.8379,2.838,0,2.7857,2.7861,2.7905,2.7951,2.7988,2.8025,2.806,2.8085,2.8096,2.8133,2.8186,2.8218,2.8282,2.8333,2.8382,2.8402,2.8394,2.8394,2.8408,2.8408,2.8402,2.8406,2.8254,2.839,2.8389,2.8389,2.8388,2.8388,2.794,2.798,2.8015,2.8064,2.8091,2.8124,2.8164,2.8181,2.8226,2.8278,2.8279,2.8338,2.8372,2.8436,2.8459,2.8505,2.849,2.8509,2.8514,2.8519,2.8524,2.8394,2.8514,2.8514,2.8513,2.8513,2.8513,0,2.8057,2.8078,2.8124,2.8173,2.8211,2.8199,2.8237,2.8271,2.8322,2.8355,2.8396,2.8457,2.8506,2.8531,2.858,2.8612,2.8609,2.8625,2.8623,2.8628,2.8535,2.8518,2.8626,2.8626,2.8626,2.8626,2.8626,2.8626,2.8123,2.819,2.8198,2.8279,2.83,2.8356,2.8379,2.841,2.8436,2.8505,2.8546,2.8561,2.8591,2.8642,2.8687,2.8692,2.8711,2.8729,2.8733,2.8646,2.8634,2.8623,2.8608,2.8733,2.8733,2.8822,2.8823,2.8823]},{"header":{"parameterUnit":"m.s-1","parameterCategory":1,"la1":30.2991,"la2":30.254,"lo1":-89.0895,"lo2":-89.0444,"dy":0.0017,"dx":0.0017,"nx":28,"ny":28,"refTime":"2025-11-07T09:00:00:Z","depth":0,"parameterNumber":3,"parameterNumberName":"V-component_of_WINDS"},"data":[0,0,0,0,0,0,0,0,0,0,0,0,0,0,0,0,0,0,0,0,0,0,0,0,0,0,0,0,0,0,0,0,0,0,0,0,0,0,0,0,0,0,0,0,0,0,0,0,0,0,0,0,0,0,0,0,0,0,0.9114,0.9114,0,0.9122,0.9122,0.9122,0.9112,0.9112,0.9111,0.9111,0.9119,0.9119,0.912,0,0,0,0,0,0,0,0,0,0,0,0,0,0.9089,0.9089,0.9114,0.9114,0.9114,0.9122,0.9122,0.9122,0.9112,0.9112,0.9111,0.9111,0.9119,0.9119,0.912,0,0,0,0,0,0,0,0,0,0,0,0,0,0.9099,0.909,0.9114,0.911,0.911,0.9122,0.9122,0.9122,0.9112,0.9112,0.9111,0.9111,0.9119,0.9119,0.912,0.9136,0,0,0.9123,0.9123,0,0,0,0,0,0,0,0,0.9098,0.9099,0.911,0.911,0.911,0.9115,0.9116,0.9126,0.9112,0.9111,0.9111,0.911,0.9118,0.9119,0.9122,0.9136,0.9136,0.9123,0.9123,0.9123,0.9124,0,0,0,0,0,0,0,0.9097,0.9099,0.9117,0.9111,0.911,0.9108,0.9108,0.9118,0.9118,0.9111,0.9111,0.9112,0.9118,0.9121,0.9122,0.9137,0.9123,0.9123,0.9124,0.9124,0.9163,0.9164,0,0,0,0,0,0,0.9097,0.9099,0.9117,0.9117,0.9103,0.9108,0.9109,0.9114,0.9117,0.9117,0.9112,0.9111,0.912,0.9121,0.9122,0.914,0.9123,0.9124,0.9125,0.9162,0.9163,0.9164,0,0,0,0,0,0,0.9097,0.9099,0.9116,0.9108,0.911,0.9109,0.9115,0.9115,0.9118,0.9118,0.9118,0.9115,0.9119,0.9121,0.9132,0.914,0.9125,0.9125,0.9162,0.9163,0.9163,0.9176,0,0,0,0,0,0,0.9096,0.9099,0.9105,0.9108,0.911,0.9127,0.9115,0.9115,0.9119,0.9118,0.9121,0.9121,0.9119,0.9131,0.9133,0.9141,0.9126,0.9161,0.9162,0.9163,0.9175,0.9178,0.918,0,0,0,0,0,0.9095,0.9109,0.9106,0.9108,0.9118,0.9127,0.9129,0.9126,0.912,0.9126,0.9126,0.9121,0.9139,0.9132,0.9134,0.9143,0.9161,0.9162,0.9163,0.9174,0.9177,0.918,0,0,0,0,0,0,0.9107,0.9109,0.9106,0.912,0.9124,0.9126,0.9133,0.9129,0.9134,0.9133,0.913,0.913,0.9142,0.9144,0.9136,0.9157,0.9149,0.915,0.9156,0.9159,0.9161,0.9161,0.9127,0,0,0,0,0,0.9112,0.9119,0.912,0.9133,0.9135,0.9134,0.9138,0.9135,0.9139,0.914,0.9141,0.9144,0.915,0.9155,0.9161,0.9175,0.9175,0.9182,0.9184,0.9186,0.9187,0.9194,0.9197,0.9168,0.9168,0.9168,0,0,0.9121,0.9123,0.9128,0.9136,0.9138,0.9145,0.9135,0.9144,0.9149,0.9141,0.9152,0.9153,0.9156,0.9169,0.9175,0.917,0.9195,0.9187,0.9189,0.9189,0.9196,0.9199,0.9201,0.9169,0.9168,0.9168,0,0,0.9142,0.9144,0.9155,0.9157,0.916,0.9159,0.9162,0.9164,0.9164,0.9175,0.9169,0.9175,0.9186,0.9188,0.919,0.921,0.9206,0.9212,0.9223,0.923,0.9233,0.9235,0.9241,0.9244,0.9214,0.9214,0.9214,0,0.9153,0.9164,0.9161,0.9169,0.9173,0.9165,0.9176,0.9178,0.9183,0.9185,0.918,0.9193,0.9195,0.9208,0.9212,0.9215,0.9217,0.9212,0.9233,0.9235,0.9236,0.9243,0.9245,0.9214,0.9214,0.9214,0.9214,0,0.9177,0.9185,0.9193,0.9198,0.9202,0.9212,0.9209,0.9213,0.921,0.9209,0.922,0.9221,0.9227,0.9229,0.9227,0.9242,0.9239,0.9233,0.9224,0.924,0.9246,0.9248,0.9216,0.9215,0.9215,0.9215,0,0,0.9207,0.9209,0.9212,0.9214,0.9216,0.9222,0.923,0.9236,0.9239,0.9243,0.9249,0.9258,0.9253,0.9256,0.9253,0.9259,0.9274,0.9252,0.9252,0.9256,0.929,0.9294,0.9297,0.927,0.9271,0.9271,0.9289,0,0.9228,0.9243,0.9239,0.9254,0.9261,0.9253,0.9261,0.9263,0.9262,0.9267,0.9266,0.9272,0.9264,0.9266,0.9271,0.9271,0.928,0.9269,0.9276,0.9277,0.9276,0.93,0.9305,0.9323,0.9292,0.9292,0.9292,0,0.9254,0.9258,0.9274,0.9274,0.9276,0.9283,0.9287,0.9292,0.9294,0.9293,0.9295,0.9291,0.9299,0.9289,0.93,0.9292,0.9295,0.9295,0.9295,0.9296,0.9286,0.9302,0.9328,0.9331,0.9296,0.9296,0.9296,0,0.9274,0.9283,0.9293,0.9295,0.9296,0.93,0.9301,0.9302,0.9305,0.9308,0.931,0.9314,0.9316,0.9319,0.9316,0.931,0.9327,0.9317,0.9326,0.9326,0.9331,0.933,0.9358,0.9332,0.9332,0.9332,0.9332,0,0.9298,0.9308,0.9302,0.9309,0.9319,0.9314,0.9324,0.9324,0.9324,0.933,0.9324,0.9329,0.9324,0.9329,0.9326,0.9335,0.9336,0.9335,0.9334,0.9336,0.9336,0.9338,0.9337,0.9332,0.9332,0.9332,0.9332,0,0.9323,0.9319,0.933,0.9329,0.9329,0.9337,0.9336,0.9341,0.9339,0.9346,0.9348,0.9345,0.935,0.9347,0.9352,0.935,0.9362,0.9359,0.9361,0.9361,0.9369,0.9369,0.9399,0.9403,0.9374,0.9375,0.9375,0,0.9338,0.9345,0.9345,0.9348,0.9349,0.9354,0.9357,0.9352,0.9355,0.9356,0.9362,0.9366,0.937,0.9378,0.9376,0.938,0.9378,0.9388,0.9378,0.9379,0.9378,0.9377,0.9378,0.939,0.939,0.9391,0.9391,0,0.9365,0.9363,0.9367,0.9371,0.9374,0.9377,0.9379,0.9381,0.9376,0.938,0.9385,0.9388,0.9392,0.9397,0.94,0.94,0.9395,0.9394,0.9396,0.9398,0.9399,0.9398,0.9367,0.9393,0.9393,0.9393,0.9393,0.9393,0.9386,0.9391,0.9392,0.9396,0.9397,0.9399,0.9404,0.9402,0.9406,0.9409,0.9406,0.9412,0.9412,0.9416,0.9416,0.942,0.9416,0.9419,0.942,0.9421,0.9422,0.9398,0.9421,0.9421,0.9421,0.9421,0.9421,0,0.9413,0.9412,0.9416,0.9419,0.9422,0.9416,0.9418,0.9421,0.9426,0.9427,0.943,0.9435,0.9439,0.9437,0.9441,0.9445,0.9442,0.9446,0.9445,0.9445,0.9426,0.9424,0.9447,0.9447,0.9447,0.9447,0.9447,0.9447,0.9427,0.9436,0.9434,0.9443,0.9442,0.9448,0.9449,0.945,0.945,0.9457,0.946,0.9458,0.9458,0.9461,0.9464,0.9463,0.9465,0.9469,0.9467,0.9449,0.9447,0.9444,0.9442,0.9469,0.9469,0.9486,0.9486,0.9487]}]]